Weather History for KCOQ - September, 2013

Change the Weather History Date:

Friday, September 27, 2013

  Actual Average (KDLH) Record (KDLH)
Temperature  
Mean Temperature 62 °F 51 °F  
Max Temperature 71 °F 60 °F 83 °F (1987)
Min Temperature 53 °F 42 °F 27 °F (1991)
Degree Days  
Heating Degree Days 3 14  
Month to date heating degree days 251  
Since 1 July heating degree days 400  
Cooling Degree Days 0 0  
Month to date cooling degree days 13  
Year to date cooling degree days 203  
Growing Degree Days 12 (Base 50)    
Moisture  
Dew Point 57 °F    
Average Humidity 81    
Maximum Humidity 94    
Minimum Humidity 60    
Precipitation  
Precipitation 0.01 in 0.13 in 0.75 in (1874)
Month to date precipitation 3.74  
Year to date precipitation 24.44  
Snow  
Snow 0.00 in 0.00 in T in (2003)
Month to date snowfall 0.1  
Since 1 July snowfall 0.1  
Since 1 September snowfall 0.1  
Snow Depth -    
Sea Level Pressure  
Sea Level Pressure 29.90 in    
Wind  
Wind Speed 6 mph (SE)    
Max Wind Speed 12 mph    
Max Gust Speed 18 mph    
Visibility 10 miles    
Events Rain , Thunderstorm    
T = Trace of Precipitation, MM = Missing Value Source: NWS Daily Summary

Daily Weather History Graph

Daily Weather History Graph

Search for Another Location

Airport or City:

Trip Planner

Search our weather history database for the weather conditions in past years. The results will help you decide how hot, cold, wet, or windy it might be!

Date:

Astronomy

Sep. 27, 2013 Rise Set
Actual Time 7:03 AM CDT 6:57 PM CDT
Civil Twilight 6:33 AM CDT 7:27 PM CDT
Nautical Twilight 5:58 AM CDT 8:02 PM CDT
Astronomical Twilight 5:22 AM CDT 8:38 PM CDT
Moon No Moon Rise 2:55 PM CDT (9/27)
Length of Visible Light 12h 53m
Length of Day
11h 53m
Last Quarter, 45% of the Moon is Illuminated
Sep 27
Last Quarter
Oct 4
New
Oct 11
First Quarter
Oct 18
Full
Oct 26
Last Quarter

Hourly Weather History & Observations

Time (CDT) Temp. Dew Point Humidity Pressure Visibility Wind Dir Wind Speed Gust Speed Precip Events Conditions
12:16 AM 53.6 °F 51.8 °F 94% 29.95 in 5.0 mi East 3.5 mph - N/A   Clear
12:36 AM 53.6 °F 51.8 °F 94% 29.96 in 5.0 mi ESE 3.5 mph - N/A   Clear
12:55 AM 53.6 °F 51.8 °F 94% 29.96 in 7.0 mi ESE 4.6 mph - N/A   Clear
1:16 AM 55.4 °F 51.8 °F 88% 29.96 in 7.0 mi ESE 5.8 mph - N/A   Clear
1:35 AM 55.4 °F 53.6 °F 94% 29.96 in 10.0 mi ESE 5.8 mph - N/A   Clear
1:56 AM 55.4 °F 53.6 °F 94% 29.96 in 10.0 mi ESE 5.8 mph - N/A   Clear
2:16 AM 55.4 °F 53.6 °F 94% 29.95 in 10.0 mi ESE 4.6 mph - N/A   Clear
2:35 AM 55.4 °F 53.6 °F 94% 29.95 in 10.0 mi East 4.6 mph - N/A   Clear
2:56 AM 55.4 °F 53.6 °F 94% 29.95 in 10.0 mi ESE 4.6 mph - N/A   Clear
3:16 AM 55.4 °F 53.6 °F 94% 29.95 in 10.0 mi ESE 4.6 mph - N/A   Clear
3:35 AM 55.4 °F 53.6 °F 94% 29.94 in 10.0 mi ESE 5.8 mph - N/A   Clear
3:56 AM 55.4 °F 53.6 °F 94% 29.94 in 10.0 mi ESE 5.8 mph - N/A   Clear
4:15 AM 55.4 °F 53.6 °F 94% 29.94 in 10.0 mi ESE 4.6 mph - N/A   Clear
4:36 AM 55.4 °F 53.6 °F 94% 29.94 in 10.0 mi ESE 4.6 mph - N/A   Clear
4:56 AM 55.4 °F 53.6 °F 94% 29.93 in 10.0 mi ESE 4.6 mph - N/A   Clear
5:15 AM 55.4 °F 53.6 °F 94% 29.93 in 10.0 mi ESE 5.8 mph - N/A   Clear
5:36 AM 55.4 °F 53.6 °F 94% 29.93 in 10.0 mi ESE 5.8 mph - N/A   Clear
5:56 AM 57.2 °F 53.6 °F 88% 29.93 in 10.0 mi ESE 5.8 mph - N/A   Clear
6:15 AM 57.2 °F 53.6 °F 88% 29.93 in 10.0 mi ESE 5.8 mph - N/A   Clear
6:36 AM 57.2 °F 53.6 °F 88% 29.93 in 10.0 mi ESE 6.9 mph - N/A   Clear
6:55 AM 57.2 °F 53.6 °F 88% 29.93 in 10.0 mi ESE 6.9 mph - N/A   Clear
7:16 AM 57.2 °F 53.6 °F 88% 29.93 in 10.0 mi ESE 5.8 mph - N/A   Clear
7:35 AM 57.2 °F 53.6 °F 88% 29.94 in 10.0 mi ESE 4.6 mph - N/A   Clear
7:56 AM 57.2 °F 53.6 °F 88% 29.94 in 10.0 mi ESE 5.8 mph - N/A   Clear
8:16 AM 60.8 °F 55.4 °F 82% 29.94 in 10.0 mi ESE 5.8 mph - N/A   Clear
8:35 AM 62.6 °F 55.4 °F 77% 29.94 in 10.0 mi SE 8.1 mph - N/A   Mostly Cloudy
8:56 AM 62.6 °F 55.4 °F 77% 29.93 in 10.0 mi SSE 6.9 mph - N/A   Mostly Cloudy
9:16 AM 64.4 °F 55.4 °F 73% 29.95 in 10.0 mi South 6.9 mph - N/A   Mostly Cloudy
9:35 AM 64.4 °F 55.4 °F 73% 29.95 in 10.0 mi SSE 4.6 mph - N/A   Overcast
9:56 AM 64.4 °F 55.4 °F 73% 29.94 in 10.0 mi SSE 3.5 mph - N/A   Scattered Clouds
10:15 AM 64.4 °F 55.4 °F 73% 29.94 in 10.0 mi SE 4.6 mph - N/A Thunderstorm Clear
10:36 AM 64.4 °F 57.2 °F 77% 29.93 in 10.0 mi SE 6.9 mph - N/A   Clear
10:55 AM 64.4 °F 55.4 °F 73% 29.92 in 10.0 mi SSE 10.4 mph - N/A   Clear
11:16 AM 66.2 °F 57.2 °F 73% 29.91 in 10.0 mi SE 8.1 mph 16.1 mph N/A   Clear
11:36 AM 66.2 °F 57.2 °F 73% 29.91 in 10.0 mi SE 8.1 mph - N/A   Clear
11:55 AM 66.2 °F 57.2 °F 73% 29.91 in 10.0 mi SE 8.1 mph - N/A   Clear
12:16 PM 66.2 °F 57.2 °F 73% 29.91 in 10.0 mi SE 5.8 mph - N/A   Clear
12:35 PM 66.2 °F 57.2 °F 73% 29.90 in 10.0 mi SE 8.1 mph - N/A   Clear
12:56 PM 66.2 °F 57.2 °F 73% 29.89 in 10.0 mi SE 6.9 mph - N/A   Clear
1:16 PM 66.2 °F 59.0 °F 78% 29.89 in 10.0 mi SE 6.9 mph - N/A Rain Light Rain
1:36 PM 66.2 °F 59.0 °F 78% 29.88 in 10.0 mi ESE 6.9 mph - N/A Rain Light Rain
1:56 PM 66.2 °F 59.0 °F 78% 29.88 in 10.0 mi ESE 4.6 mph - N/A Rain Light Rain
2:15 PM 64.4 °F 60.8 °F 88% 29.87 in 10.0 mi ESE 5.8 mph - N/A Rain Light Rain
2:36 PM 66.2 °F 60.8 °F 83% 29.87 in 10.0 mi ESE 4.6 mph - N/A Rain Light Rain
2:56 PM 64.4 °F 60.8 °F 88% 29.86 in 7.0 mi ESE 8.1 mph - N/A Rain Light Rain
3:16 PM 66.2 °F 60.8 °F 83% 29.87 in 10.0 mi SE 5.8 mph - N/A   Mostly Cloudy
3:36 PM 66.2 °F 60.8 °F 83% 29.84 in 10.0 mi East 6.9 mph - 0.01 in Rain Light Rain
3:55 PM 66.2 °F 60.8 °F 83% 29.83 in 10.0 mi ESE 8.1 mph - 0.01 in   Scattered Clouds
4:16 PM 69.8 °F 60.8 °F 73% 29.83 in 10.0 mi ESE 6.9 mph - N/A   Clear
4:36 PM 69.8 °F 60.8 °F 73% 29.83 in 10.0 mi ESE 6.9 mph 17.3 mph N/A   Clear
4:55 PM 68.0 °F 60.8 °F 78% 29.84 in 10.0 mi ESE 8.1 mph - N/A   Clear
5:16 PM 66.2 °F 59.0 °F 78% 29.86 in 10.0 mi ESE 5.8 mph - N/A   Scattered Clouds
5:35 PM 66.2 °F 59.0 °F 78% 29.85 in 10.0 mi ESE 8.1 mph - N/A   Mostly Cloudy
5:56 PM 64.4 °F 59.0 °F 83% 29.85 in 10.0 mi SE 6.9 mph - N/A Rain Light Rain
6:16 PM 64.4 °F 60.8 °F 88% 29.84 in 10.0 mi ESE 8.1 mph - N/A Rain Light Rain
6:36 PM 64.4 °F 59.0 °F 83% 29.84 in 10.0 mi SE 8.1 mph - N/A   Scattered Clouds
6:56 PM 64.4 °F 59.0 °F 83% 29.84 in 10.0 mi ESE 8.1 mph - N/A   Scattered Clouds
7:15 PM 64.4 °F 59.0 °F 83% 29.84 in 10.0 mi ESE 8.1 mph - N/A   Clear
7:36 PM 66.2 °F 59.0 °F 78% 29.85 in 10.0 mi ESE 6.9 mph - N/A   Clear
7:56 PM 64.4 °F 59.0 °F 83% 29.85 in 10.0 mi ESE 5.8 mph - N/A   Clear
8:15 PM 66.2 °F 59.0 °F 78% 29.85 in 10.0 mi ESE 4.6 mph - N/A   Clear
8:36 PM 71.6 °F 60.8 °F 69% 29.85 in 10.0 mi SSE 9.2 mph - N/A   Clear
8:56 PM 71.6 °F 60.8 °F 69% 29.84 in 10.0 mi SSE 10.4 mph 18.4 mph N/A   Clear
9:15 PM 71.6 °F 60.8 °F 69% 29.85 in 10.0 mi SSE 9.2 mph 17.3 mph N/A   Clear
9:36 PM 71.6 °F 60.8 °F 69% 29.85 in 10.0 mi SSE 9.2 mph - N/A   Clear
9:55 PM 71.6 °F 60.8 °F 69% 29.85 in 10.0 mi SSE 9.2 mph - N/A   Clear
10:16 PM 71.6 °F 60.8 °F 69% 29.85 in 10.0 mi SSE 9.2 mph - N/A   Clear
10:36 PM 71.6 °F 60.8 °F 69% 29.84 in 10.0 mi SSE 9.2 mph - N/A   Clear
10:55 PM 71.6 °F 59.0 °F 64% 29.84 in 10.0 mi SSE 9.2 mph - N/A   Clear
11:16 PM 71.6 °F 59.0 °F 64% 29.84 in 10.0 mi SSE 6.9 mph 16.1 mph N/A   Clear
11:36 PM 71.6 °F 59.0 °F 64% 29.84 in 10.0 mi SSE 9.2 mph - N/A   Clear
11:55 PM 71.6 °F 57.2 °F 60% 29.83 in 10.0 mi SSE 11.5 mph 16.1 mph N/A   Clear